[Iaude] MPEC V194: 2023 VP6 [a=1.27,e=0.18,i=4.2,H=25.8]
    mpec at marsden.cfa.harvard.edu 
    mpec at marsden.cfa.harvard.edu
       
    Sat Nov 11 01:08:07 EST 2023
    
    
  
M.P.E.C. 2023-V194                            Issued 2023 November 11, 06:06 UT
     The Minor Planet Electronic Circulars contain information on unusual
         minor planets, routine data on comets and natural satellites,
         and occasional editorial announcements.  They are published
    on behalf of Division F of the International Astronomical Union by the
          Minor Planet Center, Smithsonian Astrophysical Observatory,
                          Cambridge, MA 02138, U.S.A.
			  
             Prepared using the Tamkin Foundation Computer Network
                              MPC at CFA.HARVARD.EDU
            URL https://www.minorplanetcenter.net/    ISSN 1523-6714
                                    2023 VP6                                    
Observations:
     K23V06P* C2023 11 09.42686803 59 18.522-07 15 08.76         21.33wXEV194F52
     K23V06P  C2023 11 09.43789503 59 18.483-07 14 15.61         21.29GVEV194F52
     K23V06P  C2023 11 09.44891303 59 18.441-07 13 21.63         21.34wXEV194F52
     K23V06P KC2023 11 10.33441303 59 56.470-06 02 08.30         21.09GVEV194I52
     K23V06P KC2023 11 10.33812703 59 56.470-06 01 50.40         21.24GVEV194I52
     K23V06P KC2023 11 10.34183103 59 56.400-06 01 32.90         20.10GVEV194I52
     K23V06P KC2023 11 10.34552603 59 56.460-06 01 14.50         20.91GVEV194I52
     K23V06P KC2023 11 11.22568104 00 34.40 -04 50 22.6          21.4 GVEV194H21
     K23V06P KC2023 11 11.23146004 00 34.40 -04 49 54.7          21.4 GVEV194H21
     K23V06P KC2023 11 11.23521504 00 34.38 -04 49 36.5          21.4 GVEV194H21
Observer details:
F52 Pan-STARRS 2, Haleakala.  Observers J. Bulger, T. Lowe, P. Minguez, A.
    Schultz, I. Smith.  Measurers K. Chambers, T. de Boer, J. Fairlamb, H.
    Gao, M. Huber, C.-C. Lin, E. Magnier, Y. Ramanjooloo, R. Wainscoat, R.
    Weryk.  1.8-m Ritchey-Chretien + CCD.
H21 Astronomical Research Observatory, Westfield.  Observer R. Holmes.
    Measurers T. Linder, R. Holmes, L. Horn.  1.3-m f/4.0 astrograph + CCD.
I52 Steward Observatory, Mt. Lemmon Station.  Observer H. Groeller.  Measurers
    E. C. Beshore, D. Fay, J. B. Fazekas, D. C. Fuls, A. R. Gibbs, A. D.
    Grauer, H. Groeller, J. K. Hogan, R. A. Kowalski, S. M. Larson, G. J.
    Leonard, D. Rankin, R. L. Seaman, F. C. Shelly, K. W. Wierzchos.  1.0-m
    prime focus + CCD.
Orbital elements:
2023 VP6                                                 Earth MOID = 0.0668 AU
Epoch 2023 Sept. 13.0 TT = JDT 2460200.5                MPC                     
M 333.08496              (2000.0)            P               Q                  
n   0.68523948     Peri.  317.20546     +0.87475353     -0.47966872             
a   1.2742104      Node    71.57783     +0.46186088     +0.78241972             
e   0.1806254      Incl.    4.15445     +0.14659739     +0.39716156             
P   1.44           H   25.84          G   0.15           U   8                  
Residuals in seconds of arc
231109 F52  0.1-  0.0     231110 I52  0.2+  0.1+    231111 H21  0.1+  0.0
231109 F52  0.0   0.1-    231110 I52  0.6-  0.4-    231111 H21  0.2-  0.1+
231109 F52  0.1+  0.6+    231110 I52  0.4+  0.1+
231110 I52  0.1+  0.2+    231111 H21  0.1+  0.0
Ephemeris:
2023 VP6                 a,e,i = 1.27, 0.18, 4                   q = 1.0441
Date    TT    R. A. (2000) Decl.     Delta      r    Elong.  Phase     V
2023 10 12    03 08 46.9 -37 17 29   0.07687 1.0466   127.3    49.4    22.2
...
2023 10 27    03 42 48.3 -24 15 22   0.06878 1.0445   135.9    41.5    21.7
...
2023 11 04    03 54 11.6 -14 28 04   0.06787 1.0479   144.4    33.4    21.5
...
2023 11 10    03 59 41.9 -06 27 55   0.06948 1.0524   152.1    26.1    21.3
2023 11 11    04 00 23.5 -05 07 11   0.06997 1.0533   153.5    24.8    21.3
2023 11 12    04 01 01.8 -03 46 42   0.07052 1.0543   154.8    23.6    21.3
...
2023 11 18    04 03 52.7 +04 01 55   0.07536 1.0610   163.0    15.8    21.2
...
2023 11 26    04 06 08.9 +13 10 41   0.08588 1.0722   172.4     7.0    21.2
...
2023 12 11    04 10 08.0 +24 54 33   0.1179  1.0997   166.3    12.2    22.1
A. U. Tomatic                (C) Copyright 2023 MPC           M.P.E.C. 2023-V194
    
    
More information about the Iaude
mailing list